| time (UTC) | temp F | wind direction | speed MPH | gust MPH | rain 1hr in | rain 24hr in | rain mn in | humidity % | barometer mb |
| 20260902224605 | 103 | 360 | 3.0 | 8.0 | 0.00 | 0.00 | 0.00 | 35 | 1015.1 |
| 20260902224035 | 103 | 163 | 2.0 | 8.0 | 0.00 | 0.00 | 0.00 | 35 | 1015.1 |
| 20260902223538 | 104 | 132 | 1.0 | 6.0 | 0.00 | 0.00 | 0.00 | 35 | 1015.1 |
| 20260902223044 | 104 | 94 | 1.0 | 5.0 | 0.00 | 0.00 | 0.00 | 34 | 1015.2 |
| 20260902222535 | 104 | 0 | 1.0 | 7.0 | 0.00 | 0.00 | 0.00 | 34 | 1015.3 |
| 20260902222036 | 103 | 101 | 1.0 | 7.0 | 0.00 | 0.00 | 0.00 | 34 | 1015.3 |
| 20260902221604 | 103 | 152 | 3.0 | 7.0 | 0.00 | 0.00 | 0.00 | 35 | 1015.3 |
| 20260902221034 | 102 | 94 | 2.0 | 7.0 | 0.00 | 0.00 | 0.00 | 37 | 1015.2 |
| 20260902220534 | 102 | 0 | 1.0 | 10.0 | 0.00 | 0.00 | 0.00 | 35 | 1015.3 |
| 20260902220058 | 103 | 229 | 2.0 | 12.0 | 0.00 | 0.00 | 0.00 | 34 | 1015.4 |
| 20260902215534 | 103 | 191 | 5.0 | 12.0 | 0.00 | 0.00 | 0.00 | 34 | 1015.3 |
| 20260902215034 | 103 | 158 | 3.0 | 10.0 | 0.00 | 0.00 | 0.00 | 35 | 1015.4 |
| 20260902214616 | 103 | 144 | 1.0 | 12.0 | 0.00 | 0.00 | 0.00 | 36 | 1015.4 |
| 20260902214037 | 103 | 159 | 5.0 | 12.0 | 0.00 | 0.00 | 0.00 | 36 | 1015.6 |
| 20260902213536 | 102 | 157 | 1.0 | 9.0 | 0.00 | 0.00 | 0.00 | 37 | 1015.6 |
| 20260902213052 | 102 | 209 | 2.0 | 7.0 | 0.00 | 0.00 | 0.00 | 37 | 1015.7 |
| 20260902212535 | 101 | 0 | 2.0 | 6.0 | 0.00 | 0.00 | 0.00 | 37 | 1015.7 |
| 20260902212035 | 101 | 0 | 0.0 | 3.0 | 0.00 | 0.00 | 0.00 | 39 | 1015.7 |
| 20260902211545 | 101 | 0 | 0.0 | 3.0 | 0.00 | 0.00 | 0.00 | 38 | 1015.7 |
| 20260902211035 | 101 | 0 | 0.0 | 5.0 | 0.00 | 0.00 | 0.00 | 39 | 1015.8 |
| 20260902210537 | 101 | 0 | 0.0 | 8.0 | 0.00 | 0.00 | 0.00 | 38 | 1015.9 |
| 20260902210055 | 102 | 192 | 1.0 | 8.0 | 0.00 | 0.00 | 0.00 | 38 | 1016.0 |
| 20260902205534 | 103 | 197 | 2.0 | 8.0 | 0.00 | 0.00 | 0.00 | 37 | 1016.0 |
| 20260902205035 | 104 | 0 | 0.0 | 7.0 | 0.00 | 0.00 | 0.00 | 36 | 1016.1 |
| 20260902204554 | 105 | 347 | 0.0 | 6.0 | 0.00 | 0.00 | 0.00 | 35 | 1016.1 |
| 20260902204035 | 105 | 148 | 2.0 | 8.0 | 0.00 | 0.00 | 0.00 | 37 | 1016.2 |
| 20260902203534 | 104 | 198 | 0.0 | 8.0 | 0.00 | 0.00 | 0.00 | 37 | 1016.3 |
| 20260902203052 | 105 | 0 | 2.0 | 8.0 | 0.00 | 0.00 | 0.00 | 37 | 1016.4 |
| 20260902202535 | 104 | 71 | 1.0 | 4.0 | 0.00 | 0.00 | 0.00 | 37 | 1016.4 |
| 20260902202035 | 105 | 157 | 1.0 | 8.0 | 0.00 | 0.00 | 0.00 | 37 | 1016.5 |
| 20260902201602 | 104 | 0 | 2.0 | 8.0 | 0.00 | 0.00 | 0.00 | 38 | 1016.6 |
| 20260902201038 | 103 | 360 | 2.0 | 8.0 | 0.00 | 0.00 | 0.00 | 39 | 1016.6 |
| 20260902200536 | 103 | 152 | 1.0 | 7.0 | 0.00 | 0.00 | 0.00 | 39 | 1016.9 |
| 20260902200055 | 102 | 258 | 2.0 | 7.0 | 0.00 | 0.00 | 0.00 | 39 | 1016.8 |
| 20260902195534 | 101 | 263 | 1.0 | 8.0 | 0.00 | 0.00 | 0.00 | 40 | 1017.1 |
| 20260902195035 | 102 | 0 | 2.0 | 8.0 | 0.00 | 0.00 | 0.00 | 38 | 1017.1 |
| 20260902194554 | 103 | 0 | 3.0 | 8.0 | 0.00 | 0.00 | 0.00 | 38 | 1017.3 |
| 20260902194034 | 104 | 66 | 0.0 | 6.0 | 0.00 | 0.00 | 0.00 | 37 | 1017.3 |
| 20260902193539 | 104 | 0 | 0.0 | 8.0 | 0.00 | 0.00 | 0.00 | 35 | 1017.5 |
| 20260902193050 | 104 | 160 | 2.0 | 9.0 | 0.00 | 0.00 | 0.00 | 37 | 1017.4 |
| 20260902192535 | 103 | 160 | 4.0 | 9.0 | 0.00 | 0.00 | 0.00 | 39 | 1017.6 |
| 20260902192036 | 103 | 165 | 2.0 | 7.0 | 0.00 | 0.00 | 0.00 | 38 | 1017.6 |
| 20260902191548 | 103 | 0 | 1.0 | 8.0 | 0.00 | 0.00 | 0.00 | 38 | 1017.7 |
| 20260902191039 | 103 | 207 | 1.0 | 9.0 | 0.00 | 0.00 | 0.00 | 37 | 1017.8 |
| 20260902190535 | 104 | 279 | 3.0 | 9.0 | 0.00 | 0.00 | 0.00 | 38 | 1017.8 |
| 20260902190047 | 103 | 171 | 2.0 | 7.0 | 0.00 | 0.00 | 0.00 | 40 | 1017.9 |
| 20260902185535 | 103 | 0 | 0.0 | 10.0 | 0.00 | 0.00 | 0.00 | 40 | 1018.0 |
| 20260902185035 | 103 | 195 | 3.0 | 10.0 | 0.00 | 0.00 | 0.00 | 41 | 1018.0 |
| 20260902184555 | 102 | 0 | 2.0 | 10.0 | 0.00 | 0.00 | 0.00 | 43 | 1018.1 |
| 20260902184034 | 102 | 198 | 1.0 | 11.0 | 0.00 | 0.00 | 0.00 | 42 | 1018.1 |
| 20260902183536 | 102 | 171 | 5.0 | 11.0 | 0.00 | 0.00 | 0.00 | 42 | 1018.3 |
| 20260902183051 | 102 | 0 | 2.0 | 8.0 | 0.00 | 0.00 | 0.00 | 42 | 1018.4 |
| 20260902182536 | 101 | 148 | 3.0 | 8.0 | 0.00 | 0.00 | 0.00 | 44 | 1018.5 |
| 20260902182035 | 100 | 161 | 1.0 | 5.0 | 0.00 | 0.00 | 0.00 | 43 | 1018.6 |
| 20260902181552 | 100 | 163 | 0.0 | 10.0 | 0.00 | 0.00 | 0.00 | 44 | 1018.7 |
| 20260902181036 | 100 | 0 | 0.0 | 12.0 | 0.00 | 0.00 | 0.00 | 44 | 1018.9 |
| 20260902180536 | 100 | 360 | 3.0 | 12.0 | 0.00 | 0.00 | 0.00 | 46 | 1018.9 |
| 20260902180047 | 99 | 200 | 3.0 | 10.0 | 0.00 | 0.00 | 0.00 | 47 | 1019.1 |
| 20260902175534 | 99 | 165 | 0.0 | 4.0 | 0.00 | 0.00 | 0.00 | 48 | 1019.1 |
| 20260902175034 | 100 | 0 | 1.0 | 5.0 | 0.00 | 0.00 | 0.00 | 47 | 1019.2 |
| 20260902174555 | 100 | 0 | 0.0 | 8.0 | 0.00 | 0.00 | 0.00 | 47 | 1019.3 |
| 20260902174037 | 99 | 0 | 3.0 | 11.0 | 0.00 | 0.00 | 0.00 | 49 | 1019.4 |
| 20260902173535 | 99 | 164 | 4.0 | 11.0 | 0.00 | 0.00 | 0.00 | 47 | 1019.5 |
| 20260902173054 | 98 | 252 | 0.0 | 7.0 | 0.00 | 0.00 | 0.00 | 48 | 1019.5 |
| 20260902172534 | 98 | 360 | 2.0 | 7.0 | 0.00 | 0.00 | 0.00 | 51 | 1019.5 |
| 20260902172037 | 98 | 0 | 0.0 | 9.0 | 0.00 | 0.00 | 0.00 | 48 | 1019.5 |
| 20260902171556 | 97 | 80 | 3.0 | 10.0 | 0.00 | 0.00 | 0.00 | 51 | 1019.6 |
| 20260902171035 | 96 | 154 | 4.0 | 10.0 | 0.00 | 0.00 | 0.00 | 53 | 1019.6 |
| 20260902170536 | 96 | 231 | 1.0 | 8.0 | 0.00 | 0.00 | 0.00 | 54 | 1019.7 |
| 20260902170052 | 97 | 208 | 1.0 | 7.0 | 0.00 | 0.00 | 0.00 | 52 | 1019.9 |
| 20260902165534 | 96 | 0 | 1.0 | 9.0 | 0.00 | 0.00 | 0.00 | 56 | 1019.7 |
| 20260902165035 | 95 | 161 | 4.0 | 10.0 | 0.00 | 0.00 | 0.00 | 58 | 1019.9 |
| 20260902164549 | 94 | 146 | 5.0 | 12.0 | 0.00 | 0.00 | 0.00 | 58 | 1019.9 |
| 20260902164035 | 94 | 151 | 4.0 | 12.0 | 0.00 | 0.00 | 0.00 | 59 | 1019.9 |
| 20260902163535 | 94 | 210 | 1.0 | 10.0 | 0.00 | 0.00 | 0.00 | 59 | 1020.0 |
| 20260902163055 | 94 | 165 | 3.0 | 9.0 | 0.00 | 0.00 | 0.00 | 59 | 1020.0 |
| 20260902162536 | 94 | 171 | 0.0 | 7.0 | 0.00 | 0.00 | 0.00 | 60 | 1020.0 |
| 20260902162036 | 93 | 194 | 2.0 | 9.0 | 0.00 | 0.00 | 0.00 | 61 | 1020.1 |
| 20260902161555 | 93 | 189 | 3.0 | 11.0 | 0.00 | 0.00 | 0.00 | 60 | 1020.0 |
| 20260902161034 | 93 | 164 | 5.0 | 11.0 | 0.00 | 0.00 | 0.00 | 61 | 1020.1 |
| 20260902160535 | 92 | 171 | 4.0 | 9.0 | 0.00 | 0.00 | 0.00 | 64 | 1020.0 |
| 20260902160051 | 92 | 203 | 1.0 | 8.0 | 0.00 | 0.00 | 0.00 | 64 | 1020.0 |
| 20260902155536 | 92 | 217 | 0.0 | 10.0 | 0.00 | 0.00 | 0.00 | 65 | 1020.0 |
| 20260902155036 | 91 | 0 | 3.0 | 10.0 | 0.00 | 0.00 | 0.00 | 65 | 1020.0 |
| 20260902154547 | 90 | 146 | 2.0 | 7.0 | 0.00 | 0.00 | 0.00 | 67 | 1020.0 |
| 20260902154035 | 90 | 194 | 1.0 | 8.0 | 0.00 | 0.00 | 0.00 | 69 | 1020.0 |
| 20260902153536 | 89 | 161 | 2.0 | 8.0 | 0.00 | 0.00 | 0.00 | 71 | 1020.0 |
| 20260902153052 | 89 | 0 | 2.0 | 9.0 | 0.00 | 0.00 | 0.00 | 70 | 1020.0 |
| 20260902152535 | 88 | 196 | 2.0 | 10.0 | 0.00 | 0.00 | 0.00 | 71 | 1020.0 |
| 20260902152035 | 88 | 0 | 4.0 | 11.0 | 0.00 | 0.00 | 0.00 | 72 | 1019.9 |
| 20260902151544 | 87 | 205 | 4.0 | 11.0 | 0.00 | 0.00 | 0.00 | 74 | 1020.2 |
| 20260902151037 | 86 | 360 | 2.0 | 7.0 | 0.00 | 0.00 | 0.00 | 76 | 1020.1 |
| 20260902150535 | 86 | 0 | 1.0 | 8.0 | 0.00 | 0.00 | 0.00 | 76 | 1020.2 |
| 20260902150055 | 85 | 93 | 3.0 | 10.0 | 0.00 | 0.00 | 0.00 | 76 | 1020.2 |
| 20260902145535 | 85 | 198 | 2.0 | 10.0 | 0.00 | 0.00 | 0.00 | 77 | 1020.3 |
| 20260902145034 | 85 | 188 | 3.0 | 10.0 | 0.00 | 0.00 | 0.00 | 77 | 1020.1 |
| 20260902144558 | 85 | 236 | 1.0 | 9.0 | 0.00 | 0.00 | 0.00 | 79 | 1020.2 |
| 20260902144034 | 85 | 202 | 2.0 | 8.0 | 0.00 | 0.00 | 0.00 | 79 | 1020.2 |
| 20260902143535 | 84 | 156 | 1.0 | 10.0 | 0.00 | 0.00 | 0.00 | 81 | 1020.3 |
| 20260902143058 | 84 | 360 | 5.0 | 10.0 | 0.00 | 0.00 | 0.00 | 81 | 1020.2 |
| 20260902142536 | 84 | 0 | 1.0 | 7.0 | 0.00 | 0.00 | 0.00 | 81 | 1020.2 |
| 20260902142038 | 83 | 161 | 1.0 | 8.0 | 0.00 | 0.00 | 0.00 | 83 | 1020.1 |
| 20260902141542 | 83 | 194 | 4.0 | 8.0 | 0.00 | 0.00 | 0.00 | 83 | 1020.1 |
| 20260902141036 | 82 | 187 | 0.0 | 5.0 | 0.00 | 0.00 | 0.00 | 86 | 1020.2 |
| 20260902140535 | 82 | 0 | 1.0 | 5.0 | 0.00 | 0.00 | 0.00 | 87 | 1020.2 |
| 20260902140057 | 81 | 171 | 1.0 | 5.0 | 0.00 | 0.00 | 0.00 | 88 | 1020.2 |
| 20260902135537 | 80 | 150 | 0.0 | 6.0 | 0.00 | 0.00 | 0.00 | 88 | 1020.3 |
| 20260902135034 | 80 | 0 | 1.0 | 6.0 | 0.00 | 0.00 | 0.00 | 89 | 1020.3 |
| 20260902134551 | 80 | 0 | 1.0 | 4.0 | 0.00 | 0.00 | 0.00 | 91 | 1020.3 |
| 20260902134035 | 79 | 0 | 0.0 | 2.0 | 0.00 | 0.00 | 0.00 | 92 | 1020.2 |
| 20260902133535 | 79 | 0 | 0.0 | 1.0 | 0.00 | 0.00 | 0.00 | 92 | 1020.3 |
| 20260902133101 | 78 | 0 | 0.0 | 1.0 | 0.00 | 0.00 | 0.00 | 93 | 1020.2 |
| 20260902132534 | 78 | 0 | 0.0 | 0.0 | 0.00 | 0.00 | 0.00 | 93 | 1020.2 |
| 20260902132036 | 78 | 0 | 0.0 | 0.0 | 0.00 | 0.00 | 0.00 | 93 | 1020.1 |
| 20260902131555 | 77 | 0 | 0.0 | 0.0 | 0.00 | 0.00 | 0.00 | 93 | 1020.2 |
| 20260902131038 | 77 | 0 | 0.0 | 0.0 | 0.00 | 0.00 | 0.00 | 93 | 1020.0 |
| 20260902130536 | 77 | 0 | 0.0 | 0.0 | 0.00 | 0.00 | 0.00 | 93 | 1020.0 |
| 20260902130057 | 77 | 0 | 0.0 | 0.0 | 0.00 | 0.00 | 0.00 | 93 | 1019.8 |
| 20260902125535 | 77 | 0 | 0.0 | 0.0 | 0.00 | 0.00 | 0.00 | 92 | 1019.7 |
| 20260902125035 | 77 | 0 | 0.0 | 0.0 | 0.00 | 0.00 | 0.00 | 92 | 1019.6 |
| 20260902124552 | 77 | 0 | 0.0 | 0.0 | 0.00 | 0.00 | 0.00 | 92 | 1019.5 |
| 20260902124035 | 77 | 0 | 0.0 | 0.0 | 0.00 | 0.00 | 0.00 | 92 | 1019.4 |
| 20260902123535 | 77 | 0 | 0.0 | 0.0 | 0.00 | 0.00 | 0.00 | 92 | 1019.4 |
| 20260902123047 | 77 | 0 | 0.0 | 0.0 | 0.00 | 0.00 | 0.00 | 92 | 1019.3 |
| 20260902122535 | 77 | 0 | 0.0 | 0.0 | 0.00 | 0.00 | 0.00 | 92 | 1019.3 |
| 20260902122034 | 77 | 0 | 0.0 | 0.0 | 0.00 | 0.00 | 0.00 | 91 | 1019.4 |
| 20260902121556 | 77 | 0 | 0.0 | 0.0 | 0.00 | 0.00 | 0.00 | 91 | 1019.4 |
| 20260902121035 | 77 | 0 | 0.0 | 0.0 | 0.00 | 0.00 | 0.00 | 91 | 1019.4 |
| 20260902120535 | 77 | 0 | 0.0 | 0.0 | 0.00 | 0.00 | 0.00 | 91 | 1019.3 |
| 20260902120051 | 77 | 0 | 0.0 | 0.0 | 0.00 | 0.00 | 0.00 | 91 | 1019.2 |
| 20260902115534 | 77 | 0 | 0.0 | 0.0 | 0.00 | 0.00 | 0.00 | 91 | 1019.3 |
| 20260902115034 | 77 | 0 | 0.0 | 0.0 | 0.00 | 0.00 | 0.00 | 91 | 1019.3 |
| 20260902114553 | 77 | 0 | 0.0 | 0.0 | 0.00 | 0.00 | 0.00 | 91 | 1019.3 |
| 20260902114035 | 77 | 0 | 0.0 | 0.0 | 0.00 | 0.00 | 0.00 | 90 | 1019.3 |
| 20260902113534 | 77 | 0 | 0.0 | 0.0 | 0.00 | 0.00 | 0.00 | 90 | 1019.2 |
| 20260902113055 | 77 | 0 | 0.0 | 0.0 | 0.00 | 0.00 | 0.00 | 90 | 1019.1 |
| 20260902112534 | 77 | 0 | 0.0 | 0.0 | 0.00 | 0.00 | 0.00 | 90 | 1019.0 |
| 20260902112036 | 77 | 0 | 0.0 | 0.0 | 0.00 | 0.00 | 0.00 | 90 | 1019.1 |
| 20260902111549 | 77 | 0 | 0.0 | 1.0 | 0.00 | 0.00 | 0.00 | 90 | 1019.1 |
| 20260902111035 | 77 | 0 | 0.0 | 2.0 | 0.00 | 0.00 | 0.00 | 90 | 1019.1 |
| 20260902110535 | 77 | 0 | 0.0 | 2.0 | 0.00 | 0.00 | 0.00 | 90 | 1019.1 |
| 20260902110055 | 77 | 0 | 0.0 | 1.0 | 0.00 | 0.00 | 0.00 | 90 | 1018.9 |
| 20260902105537 | 77 | 0 | 0.0 | 1.0 | 0.00 | 0.00 | 0.00 | 89 | 1019.0 |
| 20260902105034 | 77 | 157 | 0.0 | 1.0 | 0.00 | 0.00 | 0.00 | 89 | 1019.0 |
| 20260902104606 | 78 | 0 | 0.0 | 0.0 | 0.00 | 0.00 | 0.00 | 89 | 1019.1 |
| 20260902104034 | 78 | 0 | 0.0 | 0.0 | 0.00 | 0.00 | 0.00 | 89 | 1019.1 |
| 20260902103534 | 78 | 0 | 0.0 | 0.0 | 0.00 | 0.00 | 0.00 | 89 | 1019.1 |
| 20260902103058 | 78 | 0 | 0.0 | 0.0 | 0.00 | 0.00 | 0.00 | 89 | 1019.2 |
| 20260902102536 | 78 | 0 | 0.0 | 0.0 | 0.00 | 0.00 | 0.00 | 89 | 1019.1 |
| 20260902102035 | 78 | 0 | 0.0 | 1.0 | 0.00 | 0.00 | 0.00 | 88 | 1019.1 |
| 20260902101549 | 78 | 0 | 0.0 | 1.0 | 0.00 | 0.00 | 0.00 | 88 | 1019.0 |
| 20260902101037 | 78 | 0 | 0.0 | 0.0 | 0.00 | 0.00 | 0.00 | 88 | 1019.0 |
| 20260902100539 | 78 | 0 | 0.0 | 1.0 | 0.00 | 0.00 | 0.00 | 88 | 1019.0 |
| 20260902100052 | 78 | 0 | 0.0 | 1.0 | 0.00 | 0.00 | 0.00 | 87 | 1019.0 |
| 20260902095538 | 78 | 0 | 0.0 | 0.0 | 0.00 | 0.00 | 0.00 | 87 | 1019.2 |
| 20260902095034 | 78 | 0 | 0.0 | 4.0 | 0.00 | 0.00 | 0.00 | 87 | 1019.2 |
| 20260902094550 | 78 | 0 | 0.0 | 4.0 | 0.00 | 0.00 | 0.00 | 87 | 1019.2 |
| 20260902094035 | 78 | 141 | 0.0 | 4.0 | 0.00 | 0.00 | 0.00 | 87 | 1019.2 |
| 20260902093535 | 78 | 0 | 0.0 | 4.0 | 0.00 | 0.00 | 0.00 | 87 | 1019.3 |
| 20260902093055 | 78 | 0 | 1.0 | 5.0 | 0.00 | 0.00 | 0.00 | 86 | 1019.4 |
| 20260902092537 | 78 | 0 | 0.0 | 5.0 | 0.00 | 0.00 | 0.00 | 86 | 1019.3 |
| 20260902092037 | 78 | 163 | 0.0 | 4.0 | 0.00 | 0.00 | 0.00 | 85 | 1019.4 |
| 20260902091603 | 78 | 0 | 0.0 | 2.0 | 0.00 | 0.00 | 0.00 | 85 | 1019.4 |
| 20260902091034 | 78 | 0 | 0.0 | 2.0 | 0.00 | 0.00 | 0.00 | 85 | 1019.4 |
| 20260902090534 | 78 | 163 | 0.0 | 2.0 | 0.00 | 0.00 | 0.00 | 85 | 1019.3 |
| 20260902090050 | 78 | 0 | 0.0 | 2.0 | 0.00 | 0.00 | 0.00 | 85 | 1019.3 |
| 20260902085534 | 79 | 0 | 0.0 | 2.0 | 0.00 | 0.00 | 0.00 | 84 | 1019.3 |
| 20260902085035 | 79 | 0 | 0.0 | 3.0 | 0.00 | 0.00 | 0.00 | 84 | 1019.4 |
| 20260902084601 | 79 | 0 | 0.0 | 3.0 | 0.00 | 0.00 | 0.00 | 84 | 1019.4 |
| 20260902084035 | 79 | 0 | 0.0 | 1.0 | 0.00 | 0.00 | 0.00 | 83 | 1019.5 |
| 20260902083532 | 79 | 0 | 0.0 | 0.0 | 0.00 | 0.00 | 0.00 | 83 | 1019.5 |
| 20260902083113 | 79 | 0 | 0.0 | 0.0 | 0.00 | 0.00 | 0.00 | 83 | 1019.5 |
| 20260902082535 | 79 | 0 | 0.0 | 0.0 | 0.00 | 0.00 | 0.00 | 82 | 1019.5 |
| 20260902082036 | 79 | 0 | 0.0 | 0.0 | 0.00 | 0.00 | 0.00 | 82 | 1019.4 |
| 20260902081553 | 79 | 0 | 0.0 | 1.0 | 0.00 | 0.00 | 0.00 | 81 | 1019.5 |
| 20260902081034 | 79 | 0 | 0.0 | 1.0 | 0.00 | 0.00 | 0.00 | 81 | 1019.5 |
| 20260902080534 | 80 | 0 | 0.0 | 1.0 | 0.00 | 0.00 | 0.00 | 81 | 1019.5 |
| 20260902080056 | 80 | 0 | 0.0 | 0.0 | 0.00 | 0.00 | 0.00 | 81 | 1019.5 |
| 20260902075536 | 80 | 0 | 0.0 | 0.0 | 0.00 | 0.00 | 0.00 | 80 | 1019.5 |
| 20260902075035 | 80 | 0 | 0.0 | 2.0 | 0.00 | 0.00 | 0.00 | 80 | 1019.6 |
| 20260902074549 | 80 | 0 | 0.0 | 2.0 | 0.00 | 0.00 | 0.00 | 79 | 1019.4 |
| 20260902074035 | 80 | 0 | 0.0 | 2.0 | 0.00 | 0.00 | 0.00 | 79 | 1019.5 |
| 20260902073535 | 80 | 0 | 0.0 | 2.0 | 0.00 | 0.00 | 0.00 | 79 | 1019.4 |
| 20260902073057 | 80 | 0 | 0.0 | 2.0 | 0.00 | 0.00 | 0.00 | 78 | 1019.5 |
| 20260902072537 | 81 | 0 | 0.0 | 1.0 | 0.00 | 0.00 | 0.00 | 78 | 1019.5 |
| 20260902072035 | 81 | 0 | 0.0 | 3.0 | 0.00 | 0.00 | 0.00 | 78 | 1019.4 |
| 20260902071555 | 81 | 0 | 0.0 | 4.0 | 0.00 | 0.00 | 0.00 | 78 | 1019.4 |
| 20260902071035 | 81 | 156 | 1.0 | 5.0 | 0.00 | 0.00 | 0.00 | 77 | 1019.3 |
| 20260902070535 | 81 | 166 | 1.0 | 5.0 | 0.00 | 0.00 | 0.00 | 77 | 1019.5 |
| 20260902070055 | 81 | 0 | 2.0 | 5.0 | 0.00 | 0.00 | 0.00 | 77 | 1019.5 |
| 20260902065534 | 81 | 135 | 1.0 | 5.0 | 0.00 | 0.00 | 0.00 | 76 | 1019.4 |
| 20260902065035 | 81 | 0 | 2.0 | 6.0 | 0.00 | 0.00 | 0.00 | 76 | 1019.4 |
| 20260902064552 | 81 | 144 | 3.0 | 6.0 | 0.00 | 0.00 | 0.00 | 76 | 1019.4 |
| 20260902064038 | 82 | 146 | 3.0 | 7.0 | 0.00 | 0.00 | 0.00 | 76 | 1019.4 |
| 20260902063537 | 82 | 157 | 3.0 | 8.0 | 0.00 | 0.00 | 0.00 | 75 | 1019.4 |
| 20260902063046 | 82 | 160 | 3.0 | 8.0 | 0.00 | 0.00 | 0.00 | 75 | 1019.4 |
| 20260902062535 | 82 | 154 | 1.0 | 8.0 | 0.00 | 0.00 | 0.00 | 75 | 1019.4 |
| 20260902062036 | 82 | 143 | 3.0 | 8.0 | 0.00 | 0.00 | 0.00 | 75 | 1019.4 |
| 20260902061548 | 82 | 149 | 2.0 | 7.0 | 0.00 | 0.00 | 0.00 | 74 | 1019.3 |
| 20260902061037 | 82 | 146 | 4.0 | 8.0 | 0.00 | 0.00 | 0.00 | 74 | 1019.3 |
| 20260902060534 | 82 | 144 | 3.0 | 8.0 | 0.00 | 0.00 | 0.00 | 73 | 1019.2 |
| 20260902060043 | 83 | 148 | 4.0 | 8.0 | 0.00 | 0.00 | 0.00 | 73 | 1019.2 |
| 20260902055536 | 83 | 153 | 3.0 | 7.0 | 0.00 | 0.00 | 0.00 | 72 | 1019.2 |
| 20260902055035 | 83 | 122 | 3.0 | 7.0 | 0.00 | 0.00 | 0.00 | 72 | 1019.1 |
| 20260902054605 | 83 | 153 | 4.0 | 9.0 | 0.00 | 0.00 | 0.00 | 71 | 1019.2 |
| 20260902054036 | 83 | 360 | 4.0 | 9.0 | 0.00 | 0.00 | 0.00 | 71 | 1019.1 |
| 20260902053534 | 83 | 150 | 3.0 | 10.0 | 0.00 | 0.00 | 0.00 | 71 | 1019.1 |
| 20260902053100 | 83 | 157 | 3.0 | 10.0 | 0.00 | 0.00 | 0.00 | 70 | 1019.1 |
| 20260902052535 | 83 | 164 | 4.0 | 9.0 | 0.00 | 0.00 | 0.00 | 70 | 1019.1 |
| 20260902052035 | 83 | 140 | 4.0 | 9.0 | 0.00 | 0.00 | 0.00 | 70 | 1019.1 |
| 20260902051545 | 84 | 173 | 1.0 | 7.0 | 0.00 | 0.00 | 0.00 | 70 | 1019.1 |
| 20260902051035 | 84 | 163 | 2.0 | 7.0 | 0.00 | 0.00 | 0.00 | 70 | 1019.1 |
| 20260902050538 | 84 | 155 | 2.0 | 7.0 | 0.00 | 0.00 | 0.00 | 69 | 1019.1 |
| 20260902050059 | 84 | 132 | 3.0 | 8.0 | 0.00 | 0.00 | 0.00 | 69 | 1019.0 |
| 20260902045534 | 84 | 173 | 2.0 | 9.0 | 0.00 | 0.00 | 0.00 | 69 | 1019.0 |
| 20260902045036 | 84 | 163 | 3.0 | 9.0 | 0.00 | 0.00 | 0.00 | 68 | 1019.0 |
| 20260902044554 | 84 | 360 | 2.0 | 9.0 | 0.00 | 0.00 | 0.00 | 67 | 1019.1 |
| 20260902044036 | 85 | 167 | 3.0 | 7.0 | 0.00 | 0.00 | 0.00 | 67 | 1019.1 |
| 20260902043534 | 85 | 118 | 2.0 | 7.0 | 0.00 | 0.00 | 0.00 | 66 | 1019.0 |
| 20260902043111 | 85 | 154 | 1.0 | 7.0 | 0.00 | 0.00 | 0.00 | 66 | 1018.9 |
| 20260902042538 | 85 | 92 | 2.0 | 7.0 | 0.00 | 0.00 | 0.00 | 65 | 1018.9 |
| 20260902042035 | 85 | 360 | 1.0 | 7.0 | 0.00 | 0.00 | 0.00 | 65 | 1018.9 |
| 20260902041547 | 85 | 360 | 1.0 | 7.0 | 0.00 | 0.00 | 0.00 | 64 | 1018.9 |
| 20260902041035 | 86 | 175 | 3.0 | 9.0 | 0.00 | 0.00 | 0.00 | 64 | 1018.8 |
| 20260902040535 | 86 | 138 | 3.0 | 9.0 | 0.00 | 0.00 | 0.00 | 64 | 1018.7 |
| 20260902040056 | 86 | 140 | 4.0 | 9.0 | 0.00 | 0.00 | 0.00 | 64 | 1018.7 |
| 20260902035535 | 86 | 165 | 3.0 | 9.0 | 0.00 | 0.00 | 0.00 | 63 | 1018.7 |
| 20260902035034 | 86 | 105 | 3.0 | 8.0 | 0.00 | 0.00 | 0.00 | 63 | 1018.7 |
| 20260902034554 | 86 | 150 | 3.0 | 8.0 | 0.00 | 0.00 | 0.00 | 63 | 1018.7 |
| 20260902034035 | 86 | 136 | 2.0 | 8.0 | 0.00 | 0.00 | 0.00 | 63 | 1018.6 |
| 20260902033535 | 86 | 69 | 2.0 | 9.0 | 0.00 | 0.00 | 0.00 | 63 | 1018.7 |
| 20260902033054 | 86 | 75 | 3.0 | 10.0 | 0.00 | 0.00 | 0.00 | 63 | 1018.5 |
| 20260902032535 | 87 | 119 | 2.0 | 10.0 | 0.00 | 0.00 | 0.00 | 63 | 1018.5 |
| 20260902032035 | 87 | 360 | 3.0 | 11.0 | 0.00 | 0.00 | 0.00 | 63 | 1018.5 |
| 20260902031549 | 87 | 144 | 4.0 | 11.0 | 0.00 | 0.00 | 0.00 | 63 | 1018.5 |
| 20260902031035 | 87 | 102 | 3.0 | 11.0 | 0.00 | 0.00 | 0.00 | 63 | 1018.3 |
| 20260902030534 | 87 | 0 | 3.0 | 14.0 | 0.00 | 0.00 | 0.00 | 63 | 1018.3 |
| 20260902030055 | 88 | 99 | 5.0 | 14.0 | 0.00 | 0.00 | 0.00 | 62 | 1018.1 |
| 20260902025535 | 88 | 360 | 4.0 | 10.0 | 0.00 | 0.00 | 0.00 | 62 | 1018.1 |
| 20260902025035 | 88 | 91 | 5.0 | 12.0 | 0.00 | 0.00 | 0.00 | 61 | 1018.0 |
| 20260902024553 | 88 | 126 | 5.0 | 12.0 | 0.00 | 0.00 | 0.00 | 60 | 1017.9 |
| 20260902024034 | 88 | 68 | 5.0 | 12.0 | 0.00 | 0.00 | 0.00 | 60 | 1017.9 |
| 20260902023537 | 89 | 70 | 4.0 | 12.0 | 0.00 | 0.00 | 0.00 | 59 | 1017.8 |
| 20260902023057 | 89 | 360 | 6.0 | 14.0 | 0.00 | 0.00 | 0.00 | 58 | 1017.8 |
| 20260902022535 | 89 | 98 | 5.0 | 14.0 | 0.00 | 0.00 | 0.00 | 57 | 1017.7 |
| 20260902022038 | 90 | 98 | 5.0 | 11.0 | 0.00 | 0.00 | 0.00 | 57 | 1017.5 |
| 20260902021548 | 90 | 70 | 3.0 | 11.0 | 0.00 | 0.00 | 0.00 | 57 | 1017.5 |
| 20260902021040 | 90 | 98 | 4.0 | 11.0 | 0.00 | 0.00 | 0.00 | 56 | 1017.3 |
| 20260902020535 | 91 | 360 | 3.0 | 11.0 | 0.00 | 0.00 | 0.00 | 54 | 1017.2 |
| 20260902020046 | 91 | 94 | 5.0 | 11.0 | 0.00 | 0.00 | 0.00 | 54 | 1017.3 |
| 20260902015535 | 92 | 88 | 4.0 | 11.0 | 0.00 | 0.00 | 0.00 | 53 | 1017.2 |
| 20260902015035 | 92 | 76 | 4.0 | 11.0 | 0.00 | 0.00 | 0.00 | 52 | 1017.1 |
| 20260902014545 | 92 | 88 | 2.0 | 11.0 | 0.00 | 0.00 | 0.00 | 51 | 1016.9 |
| 20260902014034 | 93 | 77 | 4.0 | 11.0 | 0.00 | 0.00 | 0.00 | 51 | 1016.8 |
| 20260902013534 | 93 | 87 | 3.0 | 10.0 | 0.00 | 0.00 | 0.00 | 49 | 1016.8 |
| 20260902013052 | 94 | 76 | 1.0 | 8.0 | 0.00 | 0.00 | 0.00 | 47 | 1016.8 |
| 20260902012535 | 94 | 74 | 3.0 | 8.0 | 0.00 | 0.00 | 0.00 | 46 | 1016.7 |
| 20260902012034 | 95 | 0 | 0.0 | 0.0 | 0.00 | 0.00 | 0.00 | 46 | 1016.5 |
| 20260902011616 | 95 | 0 | 0.0 | 0.0 | 0.00 | 0.00 | 0.00 | 45 | 1016.5 |
| 20260902011034 | 96 | 0 | 0.0 | 0.0 | 0.00 | 0.00 | 0.00 | 44 | 1016.4 |
| 20260902010534 | 96 | 0 | 0.0 | 0.0 | 0.00 | 0.00 | 0.00 | 43 | 1016.4 |
| 20260902010049 | 97 | 0 | 0.0 | 0.0 | 0.00 | 0.00 | 0.00 | 43 | 1016.3 |
| 20260902005536 | 97 | 0 | 0.0 | 1.0 | 0.00 | 0.00 | 0.00 | 42 | 1016.3 |
| 20260902005035 | 97 | 0 | 0.0 | 1.0 | 0.00 | 0.00 | 0.00 | 42 | 1016.2 |
| 20260902004557 | 98 | 0 | 0.0 | 3.0 | 0.00 | 0.00 | 0.00 | 41 | 1016.3 |
| 20260902004034 | 98 | 0 | 0.0 | 3.0 | 0.00 | 0.00 | 0.00 | 41 | 1016.2 |
| 20260902003534 | 99 | 99 | 0.0 | 3.0 | 0.00 | 0.00 | 0.00 | 40 | 1016.3 |
| 20260902003104 | 99 | 0 | 0.0 | 4.0 | 0.00 | 0.00 | 0.00 | 40 | 1016.3 |
| 20260902002534 | 99 | 0 | 0.0 | 5.0 | 0.00 | 0.00 | 0.00 | 40 | 1016.4 |
| 20260902002034 | 100 | 0 | 0.0 | 6.0 | 0.00 | 0.00 | 0.00 | 40 | 1016.5 |
| 20260902001555 | 100 | 111 | 1.0 | 6.0 | 0.00 | 0.00 | 0.00 | 39 | 1016.4 |
| 20260902001034 | 100 | 113 | 0.0 | 4.0 | 0.00 | 0.00 | 0.00 | 39 | 1016.3 |
| 20260902000534 | 100 | 69 | 1.0 | 5.0 | 0.00 | 0.00 | 0.00 | 39 | 1016.3 |
| 20260902000059 | 100 | 174 | 0.0 | 5.0 | 0.00 | 0.00 | 0.00 | 39 | 1016.3 |
| 20260901235534 | 100 | 0 | 0.0 | 4.0 | 0.00 | 0.00 | 0.00 | 38 | 1016.2 |
| 20260901235039 | 100 | 0 | 1.0 | 4.0 | 0.00 | 0.00 | 0.00 | 39 | 1016.3 |
| 20260901234602 | 100 | 0 | 0.0 | 2.0 | 0.00 | 0.00 | 0.00 | 39 | 1016.4 |
| 20260901234036 | 100 | 0 | 0.0 | 3.0 | 0.00 | 0.00 | 0.00 | 39 | 1016.4 |
| 20260901233535 | 100 | 0 | 0.0 | 3.0 | 0.00 | 0.00 | 0.00 | 38 | 1016.4 |
| 20260901233044 | 100 | 83 | 0.0 | 5.0 | 0.00 | 0.00 | 0.00 | 38 | 1016.4 |
| 20260901232535 | 101 | 0 | 0.0 | 5.0 | 0.00 | 0.00 | 0.00 | 38 | 1016.4 |
| 20260901232035 | 101 | 169 | 1.0 | 7.0 | 0.00 | 0.00 | 0.00 | 38 | 1016.4 |
| 20260901231609 | 101 | 150 | 2.0 | 7.0 | 0.00 | 0.00 | 0.00 | 38 | 1016.4 |
| 20260901231034 | 101 | 0 | 0.0 | 6.0 | 0.00 | 0.00 | 0.00 | 38 | 1016.4 |
| 20260901230537 | 101 | 152 | 2.0 | 10.0 | 0.00 | 0.00 | 0.00 | 38 | 1016.4 |
| 20260901230106 | 101 | 76 | 4.0 | 10.0 | 0.00 | 0.00 | 0.00 | 37 | 1016.3 |
| 20260901225537 | 101 | 160 | 2.0 | 7.0 | 0.00 | 0.00 | 0.00 | 38 | 1016.4 |
| 20260901225035 | 101 | 0 | 2.0 | 7.0 | 0.00 | 0.00 | 0.00 | 37 | 1016.4 |